Tracking 31027 objects as of 19-Jul-2025
HD Live streaming from Space Station
objects crossing your sky now

STARLINK-3726

Track STARLINK-3726 now!
10-day predictions
STARLINK-3726 is classified as:


NORAD ID: 52122
Int'l Code: 2022-029AL
Perigee: 546.0 km
Apogee: 547.8 km
Inclination: 53.2 °
Period: 95.4 minutes
Semi major axis: 6917 km
RCS: Unknown
Launch date: March 19, 2022
Source: United States (US)
Launch site: AIR FORCE EASTERN TEST RANGE (AFETR)
Your satellite tracking list
KL-BETA B
Track 1 satellite(s)




NASA's NSSDC Master Catalog

Two Line Element Set (TLE):
1 52122U 22029AL  25199.56339914  .00000213  00000-0  31483-4 0  9992
2 52122  53.2177  50.1526 0001298  95.0202 265.0938 15.08833774185447
Source of the keplerian elements: AFSPC